Dewpoint
57 58 58 57 57 59 56 55 56 56 56 55 55 55 56 57 59 59 63 64 65 65
55 55 56 54 54 52 52 52 51 51 50 51 52 51 52 53 52 56 58 59 60 61
54 54 54 53 52 51 51 50 50 50 49 50 50 50 50 50 51 50 51 52 54 55
53 54 53 52 51 50 50 50 49 49 48 48 48 49 48 49 49 48 49 50 49 49
52 52 52 51 50 50 50 49 48 48 48 48 48 48 48 47 47 46 47 48 49 48
49 49 50 49 50 49 48 48 48 48 47 47 47 47 48 47 46 45 45 46 46 47
50 49 49 49 49 49 48 48 48 48 47 47 47 47 46 46 45 45 45 45 46 47
50 49 48 48 48 47 47 47 47 46 45 46 45 45 46 46 45 45 45 46 47 48
48 49 48 48 47 47 46 46 46 45 45 45 42 46 45 45 45 45 45 46 47 48
46 46 46 46 47 48 47 47 47 45 43 44 43 45 46 46 47 45 47 48 48 46
45 43 45 46 46 47 49 49 47 45 45 47 42 45 45 47 47 47 45 45 46 45
45 44 45 44 45 47 48 48 47 46 46 46 44 45 44 42 45 46 45 43 46 46
48 46 45 45 46 47 46 45 45 44 46 47 45 43 43 43 46 46 44 45 46 47
49 47 47 46 47 46 47 46 47 45 45 43 44 45 42 42 41 39 40 41 43 45
Lifted_Index
1 1 -0 -1 -1 -1 -1 -1 -1 -0 -0 -0 -0 -0 -1 -1 -1 -1 -1 -1 -1 -1
3 3 2 1 0 -0 -0 0 1 1 1 1 1 1 1 0 -0 0 1 1 1 1
5 5 4 4 3 2 3 3 3 4 4 4 3 3 3 3 2 2 3 4 4 4
5 5 5 5 5 5 5 5 6 6 7 7 6 5 5 6 5 5 5 7 7 8
4 5 5 6 6 6 6 7 8 8 9 9 8 8 8 8 8 8 9 10 11 12
4 5 5 6 6 7 7 8 9 10 10 11 11 11 12 12 12 12 12 13 14 14
5 5 5 5 6 6 7 8 9 10 11 12 12 13 13 14 14 14 15 15 15 15
4 4 4 5 5 6 7 8 10 11 12 13 13 13 14 15 15 15 15 16 15 15
3 4 4 5 5 6 7 8 9 10 12 13 13 14 14 15 15 15 15 15 14 14
4 4 5 5 6 6 7 7 8 9 10 11 13 13 14 14 13 13 13 13 13 13
4 4 5 6 6 7 7 7 7 8 9 10 11 12 13 13 12 12 12 12 12 12
4 5 5 6 6 7 7 7 7 8 8 9 10 12 12 12 12 12 12 12 11 11
4 4 5 6 6 7 7 7 8 8 9 9 10 11 12 12 11 11 11 11 10 10
4 4 5 6 6 7 7 8 8 8 9 9 10 10 11 12 11 11 11 10 9 9